Location: Arrodets-la-Barthe
(43.0306°N, 0.2829°E)
Time: 06:44:47
(UTC+00:00)

CUBEBUG 2 - Pass Details

Date: 09 April 2023
Orbit: 577 x 685 km, 97.8° (Epoch: 03 June)

Event Time Altitude Azimuth Distance (km) Brightness Sun altitude
Rises 01:21:17 0° 30° (NNE) 3,030 ? -36.3°
Reaches altitude 10° 01:24:21 10° 51° (NE) 2,091 ? -36.1°
Enters shadow 01:25:46 14° 68° (ENE) 1,805 ? -36.0°
